BULGARIASAT-1 (42801 NORAD) Tracking and Keplerian Element Data

This shows tracking and keplerian element data for the satellite.

Feedback or suggestion? Click here.




ElementValue
Catalog42801
NameBULGARIASAT-1
Epoch Orbit658
Epoch Day106.85738324
Epoch Year2019
RAAN255.4291
Inclination0.0162
Eccentricity0.0002661
Argument of Perigee140.3067
Mean Anonmoly119.5216
Mean Motion1.00272379
Decay Rate-1E-07
L11 42801U 17038A 19106.85738324 -.00000010 00000-0 00000-0 0 9993
L22 42801 0.0162 255.4291 0002661 140.3067 119.5216 1.00272379 6585

Live tracking and technical data element details for BULGARIASAT-1 (NORAD 42801). BULGARIASAT-1 can be tracked NOW for your location showing map with azimuth and elevation plus other details from your city location.

Track the satellite on the map from your city or location and see movement details for azimuth, elevation, latitude, longitude, range, height, and movement on the map or in text.







IsCatalogInMostPopularTable: catalog: 42801, numindb: 186
Update: records affected: 1



GetName: 42801 BULGARIASAT-1

Hit Count: updated at: Sat, 20 Apr 2019 00:20:17 GMT